Simultaneous Nadir Overpasses (SNOs) Predictions

Prediction of SNOs between AQUA and METOP-A Satellite Orbit:

Table of predicted SNOs for the next 14.0 days since TLE Epoch: 9/25/2015
Index Date (AQUA) Time (AQUA) Lat,Lon (AQUA) SZA (AQUA ) Date (METOP-A) Time (METOP-A) Lat,Lon (METOP-A) SZA (METOP-A ) Distance(km) Time Diff (sec)
1 09/26/2015 14:35:11 73.95, -44.81 75.17 09/26/2015 14:34:25 73.96, -44.70 75.18 3.82 46
2 09/26/2015 15:24:38 -74.01, 122.70 104.76 09/26/2015 15:25:06 -73.99, 122.70 104.78 2.34 28
3 09/29/2015 10:09:27 73.96, 21.60 76.27 09/29/2015 10:08:46 73.93, 21.64 76.25 2.78 41
4 09/29/2015 10:58:54 -74.02,-170.89 103.66 09/29/2015 10:59:26 -74.01,-170.84 103.67 1.48 32
5 10/02/2015 05:43:41 73.93, 88.09 77.33 10/02/2015 05:43:05 73.95, 88.09 77.35 2.10 36
6 10/02/2015 06:33:08 -73.99,-104.40 102.60 10/02/2015 06:33:46 -73.98,-104.51 102.61 3.67 38
7 10/05/2015 01:17:57 73.98, 154.42 78.46 10/05/2015 01:17:25 73.96, 154.52 78.45 3.49 32
8 10/05/2015 02:07:24 -74.04, -38.07 101.47 10/05/2015 02:08:05 -74.05, -37.95 101.46 3.76 41
9 10/07/2015 20:52:11 73.94,-139.05 79.50 10/07/2015 20:51:45 73.97,-139.05 79.53 3.59 26
10 10/07/2015 21:41:38 -74.00, 28.45 100.43 10/07/2015 21:42:26 -74.01, 28.36 100.42 2.81 48




NCC Satellite Simultaneous Nadir Overpasses (SNOs) Prediction Service
